FENGYUN 1C DEB

Satellite information

Favourite Embed

Satellite Type and Status

DEBRISIN ORBIT

Key statistics

Satellite FENGYUN 1C DEB at a glance.

Uptime

9715

Days in orbit

Revolutions

≈ 13.7

Per day

Orbit

SSO

Sun Synchronous Orbit

Inclination

98.5

Latest

Satellite identification and parameters

Extended collection of information and parameters for FENGYUN 1C DEB.

Object identification

Identified? True

Debris? True

Object name: FENGYUN 1C DEB

International designator: 1999-025DZK

Object number (NORAD): 36689

Object ID (CCSDS): 36689

Country: PEOPLES REPUBLIC OF CHINA (PRC)

Current information (Y/N): Y

RCS size: SMALL

Orbital parameters

Period: 104.789 minutes

Inclination: 98.4796 deg

SMA: 7362.706 km

Apoapsis: 1215.137 km

Periapsis: 754.005 km

RAAN: 227.8431 deg

Eccentricy: 0.03131537

Argument of periapsis: 334.7216 deg

Mean anomaly: 23.8887 deg

Mean motion: 13.74189275 rev/day

Mean motion (dot): 0.0000371 rev/day2

B* drag term: 0.0027905602 1/REarth

Two-line elements (TLE)

Creation date: Nov. 28, 2025, 8:32 p.m.

Reference frame: TEME

Reference center: EARTH

Epoch: Nov. 28, 2025, 10:04 a.m. UTC

TLE line 0: 0 FENGYUN 1C DEB

TLE line 1: 1 36689U 99025DZK 25332.41960895 .00003710 00000-0 27906-2 0 9991

TLE line 2: 2 36689 98.4796 227.8431 0313154 334.7216 23.8887 13.74189275580160

Live tracking on map

Real-time ground track for satellite FENGYUN 1C DEB.

In-orbit conjunctions

A list of the most updated potential collisions computed for object FENGYUN 1C DEB.

Target Orbit TCA Probability of collision Miss distance Type
REX LEO 2025-08-09 06:09:54 0.0008315842 155.0 (m) PAYLOAD
COSMOS 2056 LEO 2025-04-20 06:49:56 0.0005688986 122.0 (m) PAYLOAD

Associated space launch

Chinese polar orbiting meteorological satellite

FENGYUN 1C DEB was lifted into orbit during the mission ‘Long March 4B | Feng Yun 1C’, on board a Long March 4B space rocket.

The launch took place on May 10, 1999, 1:33 a.m. from Launch Complex 7.

For more information about the launch, click the button.

Launch to space Long March 4B | Feng Yun 1C
Long March 4B | Feng Yun 1C

Agency: N/A

Status: Launch Successful

Launch date: May 10, 1999, 1:33 a.m. UTC

Rocket: Long March 4B

Launch pad: Launch Complex 7

Location: Taiyuan Satellite Launch Center, People's Republic of China

...

Latest news about this satellite

There are no fresh news available about this satellite. Check back as we update our databases every day.


Newsletter sign-up

Weekly statistics, charts and insights to help you stay on top of the space industry.